STARLINK-4287, 53020

Orbit data source: Space-Track

STARLINK-4287, 53020 is a payload satellite owned by SpaceX/Seattle (US) in LEO that was launched on Thu, 07 Jul 2022 UTC via an FALCON 9 launch vehicle from the Air Force Eastern Test Range (AFETR). Payload-class satellites include a variety of spacecraft equipped with specific instruments for various scientific and technological missions. These include communications satellites like Starlink; space stations such as the ISS; scientific satellites like the Hubble; Earth observation satellites from companies like Planet Labs, Umbra, and HawkEye 360; GPS; miniature CubeSats for education and research; and military/defense satellites.

Loading next visibility...
Identifier
53020, 2022-076AL
Orbit
LEO
Country
Flag of USUS
Related business
Manufacturer
SpaceX/Seattle
Mission
Operational Commercial Communications
Bus & Motor
STARLINK, Unknown motor
Mass
297 kg wet, ~275 kg dry
Launch date (UTC)
2022-07-07 (4 years ago)
Launch vehicle
FALCON 9
Launch site
Air Force Eastern Test Range (AFETR)
Object type
Payload
Rocket body
Debris
Shape & HBR
Box + 1 Pan, 10.1 m
Radar Cross Section
13.562 m², Large (>1 m²)

Expand to show TLE details & history
Last TLE update: 3 days ago

TLE from 3 days ago
0 STARLINK-4287
1 53020U 22076AL  26170.89873647 -.00000169  00000-0  74878-5 0  9991
2 53020  53.1607 345.1707 0001301  93.8299 266.2842 15.08833385218416
Epoch: 2026-06-19T21:34Z
TLE epoch observation values (Epoch: 2026-06-19T21:34:10.831Z)
Latitude
0.00007°
Longitude
113.50452°
Altitude
540.713 km
Speed
7.593 km/s
True Right ascension
23h 00m 40s
True Declination
0° 00' 00"
Sunlit
Object was in daylight at epoch
Visualization orbit readout
Latitude
Unknown
Longitude
Unknown
Altitude
Unknown
Speed
Unknown
Apparent Right ascension
Unknown
Apparent Declination
Unknown
Sunlit
N/A
Visualization observer readout
Local Sidereal Time
22:00:33
Azimuth
Unknown
Elevation
Unknown
Doppler factor
Unknown
Orbital elements
Apogee altitude
540.918 km
Perigee altitude
539.118 km
Semi-major axis
6,918.155 km
Eccentricity
0.00013
Inclination
53.1607°
RAAN
345.1707°
Arg. of periapsis
93.8299°
True anomaly
266.26932°
Mean anomaly
266.2842°
Eccentric anomaly
266.27676°
Mean motion
3.77188 °/min
Orbital period
95.44 mins
BSTAR
0.0000074878
Loading maneuver chart data...
Computing Atmospheric mass density...
Loading historical data...
Loading historical data...
Loading historical data...
Loading historical data...
Loading historical data...
Loading historical data...
Loading historical data...

Documentation

Showing up to 5 results
|